owner,sensor,date,latitude,longitude,vertical_datum,wind_speed,wind_to_direction,wind_speed_of_gust,qcFlag 
DISL,ioos:station:DISL:KATA:1,2015-04-01T00:00:00Z,30.2583,-88.2131,0.0,7.16,213.0,-9999.0,'1111122,1111122,1111122' 
DISL,ioos:station:DISL:KATA:1,2015-04-01T00:30:00Z,30.2583,-88.2131,0.0,7.67,221.1,-9999.0,'1111122,1111122,1111122' 
DISL,ioos:station:DISL:KATA:1,2015-04-01T01:00:00Z,30.2583,-88.2131,0.0,8.21,225.0,-9999.0,'1111122,1111122,1111122' 
DISL,ioos:station:DISL:KATA:1,2015-04-01T01:30:00Z,30.2583,-88.2131,0.0,8.6,233.7,-9999.0,'1111122,1111122,1111122' 
DISL,ioos:station:DISL:KATA:1,2015-04-01T02:00:00Z,30.2583,-88.2131,0.0,8.06,238.6,-9999.0,'1111122,1111122,1111122' 
DISL,ioos:station:DISL:KATA:1,2015-04-01T02:30:00Z,30.2583,-88.2131,0.0,7.11,235.4,-9999.0,'1111122,1111122,1111122' 
DISL,ioos:station:DISL:KATA:1,2015-04-01T03:00:00Z,30.2583,-88.2131,0.0,7.64,243.1,-9999.0,'1111122,1111122,1111122' 
DISL,ioos:station:DISL:KATA:1,2015-04-01T03:30:00Z,30.2583,-88.2131,0.0,6.73,244.6,-9999.0,'1111122,1111122,1111122' 
DISL,ioos:station:DISL:KATA:1,2015-04-01T04:00:00Z,30.2583,-88.2131,0.0,6.81,243.3,-9999.0,'1111122,1111122,1111122' 
DISL,ioos:station:DISL:KATA:1,2015-04-01T04:30:00Z,30.2583,-88.2131,0.0,6.64,243.4,-9999.0,'1111122,1111122,1111122' 
DISL,ioos:station:DISL:KATA:1,2015-04-01T05:00:00Z,30.2583,-88.2131,0.0,6.84,234.9,-9999.0,'1111122,1111122,1111122' 
DISL,ioos:station:DISL:KATA:1,2015-04-01T05:30:00Z,30.2583,-88.2131,0.0,6.72,235.2,-9999.0,'1111122,1111122,1111122' 
DISL,ioos:station:DISL:KATA:1,2015-04-01T06:00:00Z,30.2583,-88.2131,0.0,6.61,232.7,-9999.0,'1111122,1111122,1111122' 
DISL,ioos:station:DISL:KATA:1,2015-04-01T06:30:00Z,30.2583,-88.2131,0.0,6.59,235.2,-9999.0,'1111122,1111122,1111122' 
DISL,ioos:station:DISL:KATA:1,2015-04-01T07:00:00Z,30.2583,-88.2131,0.0,6.51,240.7,-9999.0,'1111122,1111122,1111122' 
DISL,ioos:station:DISL:KATA:1,2015-04-01T07:30:00Z,30.2583,-88.2131,0.0,5.81,245.2,-9999.0,'1111122,1111122,1111122' 
DISL,ioos:station:DISL:KATA:1,2015-04-01T08:00:00Z,30.2583,-88.2131,0.0,5.97,245.9,-9999.0,'1111122,1111122,1111122' 
DISL,ioos:station:DISL:KATA:1,2015-04-01T08:30:00Z,30.2583,-88.2131,0.0,5.42,253.6,-9999.0,'1111122,1111122,1111122' 
DISL,ioos:station:DISL:KATA:1,2015-04-01T09:00:00Z,30.2583,-88.2131,0.0,4.71,256.7,-9999.0,'1111122,1111122,1111122' 
DISL,ioos:station:DISL:KATA:1,2015-04-01T09:30:00Z,30.2583,-88.2131,0.0,4.22,259.4,-9999.0,'1111122,1111122,1111122' 
DISL,ioos:station:DISL:KATA:1,2015-04-01T10:00:00Z,30.2583,-88.2131,0.0,4.2,242.2,-9999.0,'1111122,1111122,1111122' 
DISL,ioos:station:DISL:KATA:1,2015-04-01T10:30:00Z,30.2583,-88.2131,0.0,3.39,255.7,-9999.0,'1111122,1111122,1111122' 
DISL,ioos:station:DISL:KATA:1,2015-04-01T11:00:00Z,30.2583,-88.2131,0.0,2.83,275.7,-9999.0,'1111122,1111122,1111122' 
DISL,ioos:station:DISL:KATA:1,2015-04-01T11:30:00Z,30.2583,-88.2131,0.0,2.33,271.8,-9999.0,'1111122,1111122,1111122' 
DISL,ioos:station:DISL:KATA:1,2015-04-01T12:00:00Z,30.2583,-88.2131,0.0,1.68,291.0,-9999.0,'1111122,1111122,1111122' 
DISL,ioos:station:DISL:KATA:1,2015-04-01T12:30:00Z,30.2583,-88.2131,0.0,1.07,345.4,-9999.0,'1111122,1111122,1111122' 
DISL,ioos:station:DISL:KATA:1,2015-04-01T13:00:00Z,30.2583,-88.2131,0.0,2.6,23.4,-9999.0,'1111122,1111122,1111122' 
DISL,ioos:station:DISL:KATA:1,2015-04-01T13:30:00Z,30.2583,-88.2131,0.0,4.57,53.28,-9999.0,'1111122,1111122,1111122' 
DISL,ioos:station:DISL:KATA:1,2015-04-01T14:00:00Z,30.2583,-88.2131,0.0,3.75,77.74,-9999.0,'1111122,1111122,1111122' 
DISL,ioos:station:DISL:KATA:1,2015-04-01T14:30:00Z,30.2583,-88.2131,0.0,3.86,79.0,-9999.0,'1111122,1111122,1111122' 
DISL,ioos:station:DISL:KATA:1,2015-04-01T15:00:00Z,30.2583,-88.2131,0.0,3.04,92.6,-9999.0,'1111122,1111122,1111122' 
DISL,ioos:station:DISL:KATA:1,2015-04-01T15:30:00Z,30.2583,-88.2131,0.0,3.09,144.4,-9999.0,'1111122,1111122,1111122' 
DISL,ioos:station:DISL:KATA:1,2015-04-01T16:00:00Z,30.2583,-88.2131,0.0,3.18,151.4,-9999.0,'1111122,1111122,1111122' 
DISL,ioos:station:DISL:KATA:1,2015-04-01T16:30:00Z,30.2583,-88.2131,0.0,3.6,162.6,-9999.0,'1111122,1111122,1111122' 
DISL,ioos:station:DISL:KATA:1,2015-04-01T17:00:00Z,30.2583,-88.2131,0.0,3.57,169.5,-9999.0,'1111122,1111122,1111122' 
DISL,ioos:station:DISL:KATA:1,2015-04-01T17:30:00Z,30.2583,-88.2131,0.0,3.94,180.9,-9999.0,'1111122,1111122,1111122' 
DISL,ioos:station:DISL:KATA:1,2015-04-01T18:00:00Z,30.2583,-88.2131,0.0,4.18,190.6,-9999.0,'1111122,1111122,1111122' 
DISL,ioos:station:DISL:KATA:1,2015-04-01T18:30:00Z,30.2583,-88.2131,0.0,5.07,196.3,-9999.0,'1111122,1111122,1111122' 
DISL,ioos:station:DISL:KATA:1,2015-04-01T19:00:00Z,30.2583,-88.2131,0.0,4.53,193.1,-9999.0,'1111122,1111122,1111122' 
DISL,ioos:station:DISL:KATA:1,2015-04-01T19:30:00Z,30.2583,-88.2131,0.0,4.08,199.3,-9999.0,'1111122,1111122,1111122' 
DISL,ioos:station:DISL:KATA:1,2015-04-01T20:00:00Z,30.2583,-88.2131,0.0,3.63,185.2,-9999.0,'1111122,1111122,1111122' 
DISL,ioos:station:DISL:KATA:1,2015-04-01T20:30:00Z,30.2583,-88.2131,0.0,4.24,181.4,-9999.0,'1111122,1111122,1111122' 
DISL,ioos:station:DISL:KATA:1,2015-04-01T21:00:00Z,30.2583,-88.2131,0.0,3.96,183.4,-9999.0,'1111122,1111122,1111122' 
DISL,ioos:station:DISL:KATA:1,2015-04-01T21:30:00Z,30.2583,-88.2131,0.0,3.36,162.2,-9999.0,'1111122,1111122,1111122' 
DISL,ioos:station:DISL:KATA:1,2015-04-01T22:00:00Z,30.2583,-88.2131,0.0,5.05,185.7,-9999.0,'1111122,1111122,1111122' 
DISL,ioos:station:DISL:KATA:1,2015-04-01T22:30:00Z,30.2583,-88.2131,0.0,5.89,183.3,-9999.0,'1111122,1111122,1111122' 
DISL,ioos:station:DISL:KATA:1,2015-04-01T23:00:00Z,30.2583,-88.2131,0.0,6.18,184.9,-9999.0,'1111122,1111122,1111122' 
DISL,ioos:station:DISL:KATA:1,2015-04-01T23:30:00Z,30.2583,-88.2131,0.0,6.17,191.1,-9999.0,'1111122,1111122,1111122' 
DISL,ioos:station:DISL:KATA:1,2015-04-02T00:00:00Z,30.2583,-88.2131,0.0,6.52,188.5,-9999.0,'1111122,1111122,1111122' 
DISL,ioos:station:DISL:KATA:1,2015-04-02T00:30:00Z,30.2583,-88.2131,0.0,6.27,187.9,-9999.0,'1111122,1111122,1111122' 
DISL,ioos:station:DISL:KATA:1,2015-04-02T01:00:00Z,30.2583,-88.2131,0.0,6.0,181.8,-9999.0,'1111122,1111122,1111122' 
DISL,ioos:station:DISL:KATA:1,2015-04-02T01:30:00Z,30.2583,-88.2131,0.0,5.96,183.3,-9999.0,'1111122,1111122,1111122' 
DISL,ioos:station:DISL:KATA:1,2015-04-02T02:00:00Z,30.2583,-88.2131,0.0,6.3,179.3,-9999.0,'1111122,1111122,1111122' 
DISL,ioos:station:DISL:KATA:1,2015-04-02T02:30:00Z,30.2583,-88.2131,0.0,6.55,176.8,-9999.0,'1111122,1111122,1111122' 
DISL,ioos:station:DISL:KATA:1,2015-04-02T03:00:00Z,30.2583,-88.2131,0.0,6.38,178.5,-9999.0,'1111122,1111122,1111122' 
DISL,ioos:station:DISL:KATA:1,2015-04-02T03:30:00Z,30.2583,-88.2131,0.0,6.47,183.3,-9999.0,'1111122,1111122,1111122' 
DISL,ioos:station:DISL:KATA:1,2015-04-02T04:00:00Z,30.2583,-88.2131,0.0,5.44,184.5,-9999.0,'1111122,1111122,1111122' 
DISL,ioos:station:DISL:KATA:1,2015-04-02T04:30:00Z,30.2583,-88.2131,0.0,5.49,179.2,-9999.0,'1111122,1111122,1111122' 
DISL,ioos:station:DISL:KATA:1,2015-04-02T05:00:00Z,30.2583,-88.2131,0.0,5.43,170.6,-9999.0,'1111122,1111122,1111122' 
DISL,ioos:station:DISL:KATA:1,2015-04-02T05:30:00Z,30.2583,-88.2131,0.0,6.37,194.4,-9999.0,'1111122,1111122,1111122' 
DISL,ioos:station:DISL:KATA:1,2015-04-02T06:00:00Z,30.2583,-88.2131,0.0,6.15,188.2,-9999.0,'1111122,1111122,1111122' 
DISL,ioos:station:DISL:KATA:1,2015-04-02T06:30:00Z,30.2583,-88.2131,0.0,5.64,177.5,-9999.0,'1111122,1111122,1111122' 
DISL,ioos:station:DISL:KATA:1,2015-04-02T07:00:00Z,30.2583,-88.2131,0.0,5.44,177.4,-9999.0,'1111122,1111122,1111122' 
DISL,ioos:station:DISL:KATA:1,2015-04-02T07:30:00Z,30.2583,-88.2131,0.0,4.83,182.8,-9999.0,'1111122,1111122,1111122' 
DISL,ioos:station:DISL:KATA:1,2015-04-02T08:00:00Z,30.2583,-88.2131,0.0,5.54,185.7,-9999.0,'1111122,1111122,1111122' 
DISL,ioos:station:DISL:KATA:1,2015-04-02T08:30:00Z,30.2583,-88.2131,0.0,5.61,192.1,-9999.0,'1111122,1111122,1111122' 
DISL,ioos:station:DISL:KATA:1,2015-04-02T09:00:00Z,30.2583,-88.2131,0.0,6.28,194.5,-9999.0,'1111122,1111122,1111122' 
DISL,ioos:station:DISL:KATA:1,2015-04-02T09:30:00Z,30.2583,-88.2131,0.0,5.82,196.1,-9999.0,'1111122,1111122,1111122' 
DISL,ioos:station:DISL:KATA:1,2015-04-02T10:00:00Z,30.2583,-88.2131,0.0,6.74,202.9,-9999.0,'1111122,1111122,1111122' 
DISL,ioos:station:DISL:KATA:1,2015-04-02T10:30:00Z,30.2583,-88.2131,0.0,6.23,192.5,-9999.0,'1111122,1111122,1111122' 
DISL,ioos:station:DISL:KATA:1,2015-04-02T11:00:00Z,30.2583,-88.2131,0.0,6.48,177.9,-9999.0,'1111122,1111122,1111122' 
DISL,ioos:station:DISL:KATA:1,2015-04-02T11:30:00Z,30.2583,-88.2131,0.0,6.98,174.9,-9999.0,'1111122,1111122,1111122' 
DISL,ioos:station:DISL:KATA:1,2015-04-02T12:00:00Z,30.2583,-88.2131,0.0,6.01,171.5,-9999.0,'1111122,1111122,1111122' 
DISL,ioos:station:DISL:KATA:1,2015-04-02T12:30:00Z,30.2583,-88.2131,0.0,5.41,174.3,-9999.0,'1111122,1111122,1111122' 
DISL,ioos:station:DISL:KATA:1,2015-04-02T13:00:00Z,30.2583,-88.2131,0.0,5.8,165.5,-9999.0,'1111122,1111122,1111122' 
DISL,ioos:station:DISL:KATA:1,2015-04-02T13:30:00Z,30.2583,-88.2131,0.0,6.03,168.2,-9999.0,'1111122,1111122,1111122' 
DISL,ioos:station:DISL:KATA:1,2015-04-02T14:00:00Z,30.2583,-88.2131,0.0,6.24,170.5,-9999.0,'1111122,1111122,1111122' 
DISL,ioos:station:DISL:KATA:1,2015-04-02T14:30:00Z,30.2583,-88.2131,0.0,6.37,167.4,-9999.0,'1111122,1111122,1111122' 
DISL,ioos:station:DISL:KATA:1,2015-04-02T15:00:00Z,30.2583,-88.2131,0.0,7.39,165.1,-9999.0,'1111122,1111122,1111122' 
DISL,ioos:station:DISL:KATA:1,2015-04-02T15:30:00Z,30.2583,-88.2131,0.0,6.86,163.5,-9999.0,'1111122,1111122,1111122' 
DISL,ioos:station:DISL:KATA:1,2015-04-02T16:00:00Z,30.2583,-88.2131,0.0,6.32,165.1,-9999.0,'1111122,1111122,1111122' 
DISL,ioos:station:DISL:KATA:1,2015-04-02T16:30:00Z,30.2583,-88.2131,0.0,6.17,160.7,-9999.0,'1111122,1111122,1111122' 
DISL,ioos:station:DISL:KATA:1,2015-04-02T17:00:00Z,30.2583,-88.2131,0.0,6.64,161.3,-9999.0,'1111122,1111122,1111122' 
DISL,ioos:station:DISL:KATA:1,2015-04-02T17:30:00Z,30.2583,-88.2131,0.0,6.55,161.6,-9999.0,'1111122,1111122,1111122' 
DISL,ioos:station:DISL:KATA:1,2015-04-02T18:00:00Z,30.2583,-88.2131,0.0,6.94,160.9,-9999.0,'1111122,1111122,1111122' 
DISL,ioos:station:DISL:KATA:1,2015-04-02T18:30:00Z,30.2583,-88.2131,0.0,6.45,163.7,-9999.0,'1111122,1111122,1111122' 
DISL,ioos:station:DISL:KATA:1,2015-04-02T19:00:00Z,30.2583,-88.2131,0.0,6.53,163.8,-9999.0,'1111122,1111122,1111122' 
DISL,ioos:station:DISL:KATA:1,2015-04-02T19:30:00Z,30.2583,-88.2131,0.0,6.63,164.8,-9999.0,'1111122,1111122,1111122' 
DISL,ioos:station:DISL:KATA:1,2015-04-02T20:00:00Z,30.2583,-88.2131,0.0,6.28,163.3,-9999.0,'1111122,1111122,1111122' 
DISL,ioos:station:DISL:KATA:1,2015-04-02T20:30:00Z,30.2583,-88.2131,0.0,6.42,161.3,-9999.0,'1111122,1111122,1111122' 
DISL,ioos:station:DISL:KATA:1,2015-04-02T21:00:00Z,30.2583,-88.2131,0.0,6.88,155.0,-9999.0,'1111122,1111122,1111122' 
DISL,ioos:station:DISL:KATA:1,2015-04-02T21:30:00Z,30.2583,-88.2131,0.0,6.48,154.6,-9999.0,'1111122,1111122,1111122' 
DISL,ioos:station:DISL:KATA:1,2015-04-02T22:00:00Z,30.2583,-88.2131,0.0,6.31,151.7,-9999.0,'1111122,1111122,1111122' 
DISL,ioos:station:DISL:KATA:1,2015-04-02T22:30:00Z,30.2583,-88.2131,0.0,5.86,151.7,-9999.0,'1111122,1111122,1111122' 
DISL,ioos:station:DISL:KATA:1,2015-04-02T23:00:00Z,30.2583,-88.2131,0.0,5.4,157.7,-9999.0,'1111122,1111122,1111122' 
DISL,ioos:station:DISL:KATA:1,2015-04-02T23:30:00Z,30.2583,-88.2131,0.0,5.48,156.9,-9999.0,'1111122,1111122,1111122' 
DISL,ioos:station:DISL:KATA:1,2015-04-03T00:00:00Z,30.2583,-88.2131,0.0,5.47,151.6,-9999.0,'1111122,1111122,1111122' 
DISL,ioos:station:DISL:KATA:1,2015-04-03T00:30:00Z,30.2583,-88.2131,0.0,5.77,151.8,-9999.0,'1111122,1111122,1111122' 
DISL,ioos:station:DISL:KATA:1,2015-04-03T01:00:00Z,30.2583,-88.2131,0.0,6.57,152.7,-9999.0,'1111122,1111122,1111122' 
DISL,ioos:station:DISL:KATA:1,2015-04-03T01:30:00Z,30.2583,-88.2131,0.0,6.66,160.4,-9999.0,'1111122,1111122,1111122' 
DISL,ioos:station:DISL:KATA:1,2015-04-03T02:00:00Z,30.2583,-88.2131,0.0,7.22,160.9,-9999.0,'1111122,1111122,1111122' 
DISL,ioos:station:DISL:KATA:1,2015-04-03T02:30:00Z,30.2583,-88.2131,0.0,7.2,164.4,-9999.0,'1111122,1111122,1111122' 
DISL,ioos:station:DISL:KATA:1,2015-04-03T03:00:00Z,30.2583,-88.2131,0.0,6.57,164.8,-9999.0,'1111122,1111122,1111122' 
DISL,ioos:station:DISL:KATA:1,2015-04-03T03:30:00Z,30.2583,-88.2131,0.0,6.24,165.0,-9999.0,'1111122,1111122,1111122' 
DISL,ioos:station:DISL:KATA:1,2015-04-03T04:00:00Z,30.2583,-88.2131,0.0,6.38,162.6,-9999.0,'1111122,1111122,1111122' 
DISL,ioos:station:DISL:KATA:1,2015-04-03T04:30:00Z,30.2583,-88.2131,0.0,6.53,164.7,-9999.0,'1111122,1111122,1111122' 
DISL,ioos:station:DISL:KATA:1,2015-04-03T05:00:00Z,30.2583,-88.2131,0.0,6.33,173.4,-9999.0,'1111122,1111122,1111122' 
DISL,ioos:station:DISL:KATA:1,2015-04-03T05:30:00Z,30.2583,-88.2131,0.0,6.12,173.3,-9999.0,'1111122,1111122,1111122' 
DISL,ioos:station:DISL:KATA:1,2015-04-03T06:00:00Z,30.2583,-88.2131,0.0,5.76,172.5,-9999.0,'1111122,1111122,1111122' 
DISL,ioos:station:DISL:KATA:1,2015-04-03T06:30:00Z,30.2583,-88.2131,0.0,6.08,173.2,-9999.0,'1111122,1111122,1111122' 
DISL,ioos:station:DISL:KATA:1,2015-04-03T07:00:00Z,30.2583,-88.2131,0.0,5.75,176.9,-9999.0,'1111122,1111122,1111122' 
DISL,ioos:station:DISL:KATA:1,2015-04-03T07:30:00Z,30.2583,-88.2131,0.0,5.42,182.2,-9999.0,'1111122,1111122,1111122' 
DISL,ioos:station:DISL:KATA:1,2015-04-03T08:00:00Z,30.2583,-88.2131,0.0,5.61,186.7,-9999.0,'1111122,1111122,1111122' 
DISL,ioos:station:DISL:KATA:1,2015-04-03T08:30:00Z,30.2583,-88.2131,0.0,5.97,190.1,-9999.0,'1111122,1111122,1111122' 
DISL,ioos:station:DISL:KATA:1,2015-04-03T09:00:00Z,30.2583,-88.2131,0.0,6.13,191.7,-9999.0,'1111122,1111122,1111122' 
DISL,ioos:station:DISL:KATA:1,2015-04-03T09:30:00Z,30.2583,-88.2131,0.0,6.66,194.2,-9999.0,'1111122,1111122,1111122' 
DISL,ioos:station:DISL:KATA:1,2015-04-03T10:00:00Z,30.2583,-88.2131,0.0,6.15,192.3,-9999.0,'1111122,1111122,1111122' 
DISL,ioos:station:DISL:KATA:1,2015-04-03T10:30:00Z,30.2583,-88.2131,0.0,5.86,194.6,-9999.0,'1111122,1111122,1111122' 
DISL,ioos:station:DISL:KATA:1,2015-04-03T11:00:00Z,30.2583,-88.2131,0.0,5.37,196.6,-9999.0,'1111122,1111122,1111122' 
DISL,ioos:station:DISL:KATA:1,2015-04-03T11:30:00Z,30.2583,-88.2131,0.0,5.03,192.6,-9999.0,'1111122,1111122,1111122' 
DISL,ioos:station:DISL:KATA:1,2015-04-03T12:00:00Z,30.2583,-88.2131,0.0,4.84,188.2,-9999.0,'1111122,1111122,1111122' 
DISL,ioos:station:DISL:KATA:1,2015-04-03T12:30:00Z,30.2583,-88.2131,0.0,5.01,184.9,-9999.0,'1111122,1111122,1111122' 
DISL,ioos:station:DISL:KATA:1,2015-04-03T13:00:00Z,30.2583,-88.2131,0.0,4.74,176.3,-9999.0,'1111122,1111122,1111122' 
DISL,ioos:station:DISL:KATA:1,2015-04-03T13:30:00Z,30.2583,-88.2131,0.0,5.82,174.1,-9999.0,'1111122,1111122,1111122' 
DISL,ioos:station:DISL:KATA:1,2015-04-03T14:00:00Z,30.2583,-88.2131,0.0,5.93,167.6,-9999.0,'1111122,1111122,1111122' 
DISL,ioos:station:DISL:KATA:1,2015-04-03T14:30:00Z,30.2583,-88.2131,0.0,5.24,170.9,-9999.0,'1111122,1111122,1111122' 
DISL,ioos:station:DISL:KATA:1,2015-04-03T15:00:00Z,30.2583,-88.2131,0.0,5.96,176.3,-9999.0,'1111122,1111122,1111122' 
DISL,ioos:station:DISL:KATA:1,2015-04-03T15:30:00Z,30.2583,-88.2131,0.0,5.75,183.0,-9999.0,'1111122,1111122,1111122' 
DISL,ioos:station:DISL:KATA:1,2015-04-03T16:00:00Z,30.2583,-88.2131,0.0,6.2,188.2,-9999.0,'1111122,1111122,1111122' 
DISL,ioos:station:DISL:KATA:1,2015-04-03T16:30:00Z,30.2583,-88.2131,0.0,6.54,178.2,-9999.0,'1111122,1111122,1111122' 
DISL,ioos:station:DISL:KATA:1,2015-04-03T17:00:00Z,30.2583,-88.2131,0.0,6.45,179.3,-9999.0,'1111122,1111122,1111122' 
DISL,ioos:station:DISL:KATA:1,2015-04-03T17:30:00Z,30.2583,-88.2131,0.0,6.47,184.0,-9999.0,'1111122,1111122,1111122' 
DISL,ioos:station:DISL:KATA:1,2015-04-03T18:00:00Z,30.2583,-88.2131,0.0,6.21,186.6,-9999.0,'1111122,1111122,1111122' 
DISL,ioos:station:DISL:KATA:1,2015-04-03T18:30:00Z,30.2583,-88.2131,0.0,6.93,184.4,-9999.0,'1111122,1111122,1111122' 
DISL,ioos:station:DISL:KATA:1,2015-04-03T19:00:00Z,30.2583,-88.2131,0.0,7.65,183.6,-9999.0,'1111122,1111122,1111122' 
DISL,ioos:station:DISL:KATA:1,2015-04-03T19:30:00Z,30.2583,-88.2131,0.0,7.28,185.3,-9999.0,'1111122,1111122,1111122' 
DISL,ioos:station:DISL:KATA:1,2015-04-03T20:00:00Z,30.2583,-88.2131,0.0,7.01,184.0,-9999.0,'1111122,1111122,1111122' 
DISL,ioos:station:DISL:KATA:1,2015-04-03T20:30:00Z,30.2583,-88.2131,0.0,7.48,181.1,-9999.0,'1111122,1111122,1111122' 
DISL,ioos:station:DISL:KATA:1,2015-04-03T21:00:00Z,30.2583,-88.2131,0.0,6.96,178.5,-9999.0,'1111122,1111122,1111122' 
DISL,ioos:station:DISL:KATA:1,2015-04-03T21:30:00Z,30.2583,-88.2131,0.0,6.73,179.7,-9999.0,'1111122,1111122,1111122' 
DISL,ioos:station:DISL:KATA:1,2015-04-03T22:00:00Z,30.2583,-88.2131,0.0,6.98,185.1,-9999.0,'1111122,1111122,1111122' 
DISL,ioos:station:DISL:KATA:1,2015-04-03T22:30:00Z,30.2583,-88.2131,0.0,6.88,185.1,-9999.0,'1111122,1111122,1111122' 
DISL,ioos:station:DISL:KATA:1,2015-04-03T23:00:00Z,30.2583,-88.2131,0.0,7.4,188.2,-9999.0,'1111122,1111122,1111122' 
DISL,ioos:station:DISL:KATA:1,2015-04-03T23:30:00Z,30.2583,-88.2131,0.0,6.9,191.4,-9999.0,'1111122,1111122,1111122' 
DISL,ioos:station:DISL:KATA:1,2015-04-04T00:00:00Z,30.2583,-88.2131,0.0,7.0,190.6,-9999.0,'1111122,1111122,1111122' 
DISL,ioos:station:DISL:KATA:1,2015-04-04T00:30:00Z,30.2583,-88.2131,0.0,7.32,191.6,-9999.0,'1111122,1111122,1111122' 
DISL,ioos:station:DISL:KATA:1,2015-04-04T01:00:00Z,30.2583,-88.2131,0.0,7.23,195.0,-9999.0,'1111122,1111122,1111122' 
DISL,ioos:station:DISL:KATA:1,2015-04-04T01:30:00Z,30.2583,-88.2131,0.0,7.32,191.9,-9999.0,'1111122,1111122,1111122' 
DISL,ioos:station:DISL:KATA:1,2015-04-04T02:00:00Z,30.2583,-88.2131,0.0,7.76,191.0,-9999.0,'1111122,1111122,1111122' 
DISL,ioos:station:DISL:KATA:1,2015-04-04T02:30:00Z,30.2583,-88.2131,0.0,7.79,190.4,-9999.0,'1111122,1111122,1111122' 
DISL,ioos:station:DISL:KATA:1,2015-04-04T03:00:00Z,30.2583,-88.2131,0.0,8.24,196.2,-9999.0,'1111122,1111122,1111122' 
DISL,ioos:station:DISL:KATA:1,2015-04-04T03:30:00Z,30.2583,-88.2131,0.0,7.73,198.7,-9999.0,'1111122,1111122,1111122' 
DISL,ioos:station:DISL:KATA:1,2015-04-04T04:00:00Z,30.2583,-88.2131,0.0,7.93,204.5,-9999.0,'1111122,1111122,1111122' 
DISL,ioos:station:DISL:KATA:1,2015-04-04T04:30:00Z,30.2583,-88.2131,0.0,7.07,212.5,-9999.0,'1111122,1111122,1111122' 
DISL,ioos:station:DISL:KATA:1,2015-04-04T05:00:00Z,30.2583,-88.2131,0.0,7.26,211.6,-9999.0,'1111122,1111122,1111122' 
DISL,ioos:station:DISL:KATA:1,2015-04-04T05:30:00Z,30.2583,-88.2131,0.0,7.07,212.9,-9999.0,'1111122,1111122,1111122' 
DISL,ioos:station:DISL:KATA:1,2015-04-04T06:00:00Z,30.2583,-88.2131,0.0,6.91,223.9,-9999.0,'1111122,1111122,1111122' 
DISL,ioos:station:DISL:KATA:1,2015-04-04T06:30:00Z,30.2583,-88.2131,0.0,6.74,230.2,-9999.0,'1111122,1111122,1111122' 
DISL,ioos:station:DISL:KATA:1,2015-04-04T07:00:00Z,30.2583,-88.2131,0.0,6.47,233.7,-9999.0,'1111122,1111122,1111122' 
DISL,ioos:station:DISL:KATA:1,2015-04-04T07:30:00Z,30.2583,-88.2131,0.0,6.02,233.5,-9999.0,'1111122,1111122,1111122' 
DISL,ioos:station:DISL:KATA:1,2015-04-04T08:00:00Z,30.2583,-88.2131,0.0,5.64,238.8,-9999.0,'1111122,1111122,1111122' 
DISL,ioos:station:DISL:KATA:1,2015-04-04T08:30:00Z,30.2583,-88.2131,0.0,5.51,255.0,-9999.0,'1111122,1111122,1111122' 
DISL,ioos:station:DISL:KATA:1,2015-04-04T09:00:00Z,30.2583,-88.2131,0.0,4.65,246.5,-9999.0,'1111122,1111122,1111122' 
DISL,ioos:station:DISL:KATA:1,2015-04-04T09:30:00Z,30.2583,-88.2131,0.0,5.46,265.0,-9999.0,'1111122,1111122,1111122' 
DISL,ioos:station:DISL:KATA:1,2015-04-04T10:00:00Z,30.2583,-88.2131,0.0,5.03,272.5,-9999.0,'1111122,1111122,1111122' 
DISL,ioos:station:DISL:KATA:1,2015-04-04T10:30:00Z,30.2583,-88.2131,0.0,6.53,299.4,-9999.0,'1111122,1111122,1111122' 
DISL,ioos:station:DISL:KATA:1,2015-04-04T11:00:00Z,30.2583,-88.2131,0.0,6.9,307.0,-9999.0,'1111122,1111122,1111122' 
DISL,ioos:station:DISL:KATA:1,2015-04-04T11:30:00Z,30.2583,-88.2131,0.0,8.07,325.6,-9999.0,'1111122,1111122,1111122' 
DISL,ioos:station:DISL:KATA:1,2015-04-04T12:00:00Z,30.2583,-88.2131,0.0,7.57,339.4,-9999.0,'1111122,1111122,1111122' 
DISL,ioos:station:DISL:KATA:1,2015-04-04T12:30:00Z,30.2583,-88.2131,0.0,8.86,2.948,-9999.0,'1111122,1111122,1111122' 
DISL,ioos:station:DISL:KATA:1,2015-04-04T13:00:00Z,30.2583,-88.2131,0.0,11.41,12.66,-9999.0,'1111122,1111122,1111122' 
DISL,ioos:station:DISL:KATA:1,2015-04-04T13:30:00Z,30.2583,-88.2131,0.0,11.55,7.639,-9999.0,'1111122,1111122,1111122' 
DISL,ioos:station:DISL:KATA:1,2015-04-04T14:00:00Z,30.2583,-88.2131,0.0,10.49,21.65,-9999.0,'1111122,1111122,1111122' 
DISL,ioos:station:DISL:KATA:1,2015-04-04T14:30:00Z,30.2583,-88.2131,0.0,10.69,12.57,-9999.0,'1111122,1111122,1111122' 
DISL,ioos:station:DISL:KATA:1,2015-04-04T15:00:00Z,30.2583,-88.2131,0.0,11.24,8.95,-9999.0,'1111122,1111122,1111122' 
DISL,ioos:station:DISL:KATA:1,2015-04-04T15:30:00Z,30.2583,-88.2131,0.0,10.76,8.34,-9999.0,'1111122,1111122,1111122' 
DISL,ioos:station:DISL:KATA:1,2015-04-04T16:00:00Z,30.2583,-88.2131,0.0,9.07,17.72,-9999.0,'1111122,1111122,1111122' 
DISL,ioos:station:DISL:KATA:1,2015-04-04T16:30:00Z,30.2583,-88.2131,0.0,9.46,20.2,-9999.0,'1111122,1111122,1111122' 
DISL,ioos:station:DISL:KATA:1,2015-04-04T17:00:00Z,30.2583,-88.2131,0.0,9.79,19.58,-9999.0,'1111122,1111122,1111122' 
DISL,ioos:station:DISL:KATA:1,2015-04-04T17:30:00Z,30.2583,-88.2131,0.0,8.29,22.92,-9999.0,'1111122,1111122,1111122' 
DISL,ioos:station:DISL:KATA:1,2015-04-04T18:00:00Z,30.2583,-88.2131,0.0,6.51,19.22,-9999.0,'1111122,1111122,1111122' 
DISL,ioos:station:DISL:KATA:1,2015-04-04T18:30:00Z,30.2583,-88.2131,0.0,7.31,11.12,-9999.0,'1111122,1111122,1111122' 
DISL,ioos:station:DISL:KATA:1,2015-04-04T19:00:00Z,30.2583,-88.2131,0.0,6.8,10.92,-9999.0,'1111122,1111122,1111122' 
DISL,ioos:station:DISL:KATA:1,2015-04-04T19:30:00Z,30.2583,-88.2131,0.0,5.03,16.93,-9999.0,'1111122,1111122,1111122' 
DISL,ioos:station:DISL:KATA:1,2015-04-04T20:00:00Z,30.2583,-88.2131,0.0,6.37,34.01,-9999.0,'1111122,1111122,1111122' 
DISL,ioos:station:DISL:KATA:1,2015-04-04T20:30:00Z,30.2583,-88.2131,0.0,8.62,36.85,-9999.0,'1111122,1111122,1111122' 
DISL,ioos:station:DISL:KATA:1,2015-04-04T21:00:00Z,30.2583,-88.2131,0.0,8.42,37.94,-9999.0,'1111122,1111122,1111122' 
DISL,ioos:station:DISL:KATA:1,2015-04-04T21:30:00Z,30.2583,-88.2131,0.0,8.02,36.21,-9999.0,'1111122,1111122,1111122' 
DISL,ioos:station:DISL:KATA:1,2015-04-04T22:00:00Z,30.2583,-88.2131,0.0,5.81,27.89,-9999.0,'1111122,1111122,1111122' 
DISL,ioos:station:DISL:KATA:1,2015-04-04T22:30:00Z,30.2583,-88.2131,0.0,7.62,29.74,-9999.0,'1111122,1111122,1111122' 
DISL,ioos:station:DISL:KATA:1,2015-04-04T23:00:00Z,30.2583,-88.2131,0.0,6.48,32.26,-9999.0,'1111122,1111122,1111122' 
DISL,ioos:station:DISL:KATA:1,2015-04-04T23:30:00Z,30.2583,-88.2131,0.0,7.6,31.53,-9999.0,'1111122,1111122,1111122' 
DISL,ioos:station:DISL:KATA:1,2015-04-05T00:00:00Z,30.2583,-88.2131,0.0,8.56,35.0,-9999.0,'1111122,1111122,1111122' 
DISL,ioos:station:DISL:KATA:1,2015-04-05T00:30:00Z,30.2583,-88.2131,0.0,6.88,33.21,-9999.0,'1111122,1111122,1111122' 
DISL,ioos:station:DISL:KATA:1,2015-04-05T01:00:00Z,30.2583,-88.2131,0.0,7.34,30.35,-9999.0,'1111122,1111122,1111122' 
DISL,ioos:station:DISL:KATA:1,2015-04-05T01:30:00Z,30.2583,-88.2131,0.0,7.35,35.54,-9999.0,'1111122,1111122,1111122' 
DISL,ioos:station:DISL:KATA:1,2015-04-05T02:00:00Z,30.2583,-88.2131,0.0,7.11,38.55,-9999.0,'1111122,1111122,1111122' 
DISL,ioos:station:DISL:KATA:1,2015-04-05T02:30:00Z,30.2583,-88.2131,0.0,7.18,37.16,-9999.0,'1111122,1111122,1111122' 
DISL,ioos:station:DISL:KATA:1,2015-04-05T03:00:00Z,30.2583,-88.2131,0.0,7.38,40.7,-9999.0,'1111122,1111122,1111122' 
DISL,ioos:station:DISL:KATA:1,2015-04-05T03:30:00Z,30.2583,-88.2131,0.0,7.58,30.81,-9999.0,'1111122,1111122,1111122' 
DISL,ioos:station:DISL:KATA:1,2015-04-05T04:00:00Z,30.2583,-88.2131,0.0,8.26,35.73,-9999.0,'1111122,1111122,1111122' 
DISL,ioos:station:DISL:KATA:1,2015-04-05T04:30:00Z,30.2583,-88.2131,0.0,7.76,33.71,-9999.0,'1111122,1111122,1111122' 